Погода Чёрный Яр

Погода Чёрный Яр : погода сейчас, прогноз погоды и архив. Всё, что Вы хотите узнать о погоде Чёрный Яр!

Поиск расширенной информации на нашем сайте:

Другие новости

Новости СМИ2

Главная страница сайта

Новости сайта

03.07.2017

Напоминаем, что на нашем специализированном сайте Метеоцентр.Азия вы можете получить высокодетализированные автоматические прогнозы погоды по пунктам России, СНГ и мира в авиационном формате (включающие направление и скорость ветра, видимость, явления погоды, количество и форму облачности, нижнюю и верхнюю границу облачности).

Рекомендуем: Изготовление деревянных крестов здесь.

Погода Чёрный Яр - сегодня

Время (UTC), дата Ветер
(°,м/с) 
Видим.   Явления Облачность Т
(°С)
Тd
(°С)
f(%) Тe
(°С)
Pmin
(гПа)
dP
(гПа)
Po
(мм)
O2
(г/м3)
Тmin Tmax R s Состояние
почвы
09 21.04.18 330 (СЗ) 5-10{10}  10 км    3/1 600 м верхняя 
[Cu hum|Ci fib]
+12.3 -2.2 36 +11  1010.6  758  292           
15 21.04.18 280 (З) 3{13}  10 км    3/0 средняя 
[Ac cuf]
+14.1 -1.1 35 +14  1009.4  -0.7  757  290    +14.6       
18 21.04.18 190 (Ю) 10 км    ясно 
+9.5 +1.5 57 +10  1009.4  757  294           
21 21.04.18 200 (Ю) 10 км    ясно 
+7.3 +3.8 78 +7  1008.1  -1.3  756  296           
00 22.04.18 210 (ЮЗ) 10 км    ясно 
+8.9 +3.1 67 +7  1005.4  -2.6  754  294           
03 22.04.18 200 (Ю) 6{11}  10 км    8/0 средняя 
[Ac cast]
+8.8 +3.3 68 +7  1002.6  -2.8  752  293  +6.8        сухая 
06 22.04.18 230 (ЮЗ) 10-15{16}  10 км    10/0 средняя 
[Ac cuf]
+13.8 +3.3 49 +12  1001.2  -1.5  750  287           
09 22.04.18 220 (ЮЗ) 8-12{16}  10 км  {ливн. осадки}  10/5 600 м кучево-дожд., средняя 
[Cb calv|Ac cuf]
+11.6 +9.8 89 +11  1001.1  -0.1  750  288           
12 22.04.18 230 (ЮЗ) 7-11{14}  10 км  {ливн. осадки}  8/1 600 м средняя 
[Cu hum|Ac cuf]
+17.2 +9 58 +17  1000.2  -0.9  750  283           
15 22.04.18 270 (З) 10 км  {гроза}  10/3 600 м кучево-дожд., средняя 
[Cb calv|Ac cuf]
+16.4 +1.3 36 +16  1000.8  0.6  750  285    +18.3     
18 22.04.18 270 (З) 10 км  {гроза}  8/3 600 м средняя 
[Sc diur, vesp|Ac cuf]
+10.8 +3.4 60 +12  1003  2.3  752  291           
21 22.04.18 250 (З) 10 км  слаб. ливневой дождь  10/10 600 м кучево-дожд. 
[Cb calv]
+9.1 +6.3 83 +9  1004  0.9  752  292           
00 23.04.18 230 (ЮЗ) 4{10}  4000 м  дымка{ливн. осадки}  ясно 
+5.9 +5.5 97 +4  1003.6  -0.4  752  296           
03 23.04.18 270 (З) 4000 м  дымка  9/0 средняя 
[Ac cast]
+6.6 +5.3 91 +6  1005.1  1.5  753  296  +5.2       
06 23.04.18 200 (Ю) 10 км    10/6 600 м средняя, верхняя 
[Cu med, cong|Ac cast|Ci]
+8.6 +5.5 81 +9  1006.6  1.5  754  294           
12 23.04.18 300 (СЗ) 5{12}  10 км  {ливн. осадки}  4/4 1000 м 
[Cu med, cong]
+10.2 +0.5 51 +9  1008.7  1.3  756  294           
15 23.04.18 310 (СЗ) 10 км    10/0 средняя 
[Ac cuf]
+8 -2.2 48 +6  1010.6  1.8  757  297    +11.5  0.3     
18 23.04.18 310 (СЗ) 10 км    5/0 средняя 
[Ac und]
+4.6 -3.1 57 +4  1013.5  2.9  760  301           
21 23.04.18 250 (З) 10 км    10/0 средняя 
[Ac lent]
+3 -2.2 69 +2  1014.4  0.9  760  303           
00 24.04.18 240 (ЮЗ) 10 км    3/0 верхняя 
[Ci fib]
-0.8 -3.1 84 -3  1015.2  0.8  761  308           
03 24.04.18 250 (З) 10 км    ясно 
+0.9 -2.6 77 -1  1016.4  1.2  762  306  -1.3        замёрзшая 
06 24.04.18 250 (З) 10 км    ясно 
+8.2 -3.5 43 +7  1017.7  1.3  763  299           
09 24.04.18 270 (З) 5-11{12}  10 км    8/0 средняя 
[Ac cast]
+11.4 -7 27 +10  1017.7  0.1  763  296           
12 24.04.18 260 (З) 7-13{14}  10 км    9/0 средняя 
[Ac cast]
+13 -5.9 26 +12  1017.6  -0.2  763  294           
15 24.04.18 250 (З) 5{13}  10 км    1/0 средняя 
[Ac cast]
+11.9 -7.2 26 +11  1017.4  -0.2  763  295    +13       
Время (UTC), дата Ветер
(°,м/с) 
Видим.   Явления Облачность Т
(°С)
Тd
(°С)
f(%) Тe
(°С)
Pmin
(гПа)
dP
(гПа)
Po
(мм)
O2
(г/м3)
Тmin Tmax R s Состояние
почвы

Для получения пояснительной информации подведите курсор к названию столбца.

ПОГОДА Чёрный Яр - архив

Всё, что Вы хотите узнать о погоде Чёрный Яр - удобно и подробно!

Выберите нужную дату (начиная с 1 января 2015* года) и нажмите кнопку "Найти".
Будут отображены архивные сводки погоды по пункту Чёрный Яр, начиная с указанной даты.


Отображать данные в формате CSV (для использования в таблицах Excel)


Внимание! Наш архив погоды предназначен исключительно для личного некоммерческого использования в познавательных целях. Если Вам необходимы официальные справки о состоянии погоды (для производственных, юридических, коммерческих и т.п. целей), обращайтесь в органы Росгидромета.

*Примечание: данная дата относится к архиву по метеостанциям СССР (Россия, СНГ, Балтия).
Архив по метеостанциям Зарубежной Европы и Азии (кроме Китая) хранится 10 дней, по другим регионам земного шара (Китай, Африка, Америка, Австралия, Океания) - 1 день.

Чёрный Яр - район местоположения метеостанции


Название, широта, долгота, высота метеостанции:
Чёрный Яр 48.1°ш. 46.1°д. 5 м над ур. моря [Российская Федерация]

Дополнительная информация

В oтличие oт бoльшинства пoгoдных сайтoв мы публикуем пoдрoбную метеoинфoрмацию в детальнoм прoфессиoнальнoм фoрмате.

Характеристики температуры и влажнoсти вoздуха измеряются на высoте 2 м в тени вдали oт зданий и деревьев.
Скoрoсть ветра измеряется на высoте 10 м (на урoвне рoста челoвека скoрoсть ветра ниже в 1.5-2 раза). Если метеoстанция нахoдится в гoрoде или в лесу, тo скoрoсть ветра занижена на 2-4 м/с пo сравнению с oткрытым местoм. Скoрoсть ветра над акватoриями крупных рек и oзёр, а также на вершинах хoлмoв на 2-5 м/с выше, чем в oбычных услoвиях.
Атмoсфернoе давление в разных тoчках местнoсти мoжет значительнo oтличаться oт давления на метеoстанции, в зависимoсти oт услoвий рельефа (при пoдъёме на 10 м давление пoнижается примернo на 1 мм рт.ст.).